Main page
METAR-TAF:

METAR-TAF

Airports :

Boulmer, England

RAF Boulmer

latitude: 55-25-19N, longitude: 1-36-12W, elevation: 24 m

Current weather observation

The report was made 1 hour and 14 minutes ago, at 20:50 UTC
Wind 2 kt from the Northeast
Temperature 6°C
Humidity 100%
Pressure 1017 hPa
Visibility: 2700 m
mist

METAR: EGQM 192050Z AUTO 05002KT 2700 BR SCT007/// OVC012/// 06/06 Q1017

Time: 22:04 (22:04 UTC)


TAF: missing

Weather observations and forecasts of more than 4000 airports (METAR and TAF reports).

The available stations are represented by yellow and red dots on the map.

Hover mouse over dot to see the name of the station.

Then click to see weather observations and forecasts.

To change the map : click on the green buttons with a black cross to zoom in, on the green button with a dash to zoom out, or on the green arrows for adjacent maps.


METAR-TAF: